Voltar ao catálogo

USA 160 DEB

AtivoLEO
NORAD 26907·DEBRIS·🇺🇸 United States

Lançado Sep 8, 2001 de Vandenberg Space Force Base

Loading…

Próximas Passagens (próximas 24 horas)

TLE

ObsoletoSource: Mike McCants

Época: Aug 7, 2026, 20:14 UTC

1 26907U 01040C   26219.84323025 0.00000600  00000-0  27679-3 0    09
2 26907  63.3647 102.4104 0664834  13.7311 346.2688 13.42373489    05

Acompanhe USA 160 DEB em tempo real com AllMySat

Download on the App Store